Wetterdaten: Dienstag, 09.04.2019
Datum Zeit Temp. Auen Feucht Auen Luftdruck Regen Richtung Richtung Windben
09.04.2019 00:00 8,1 C 90 % 1011,0 hPa 0,0 mm W 271 0,0 km/h (0 Bft)
09.04.2019 00:05 8,1 C 90 % 1010,9 hPa 0,0 mm W 271 0,0 km/h (0 Bft)
09.04.2019 00:10 8,1 C 90 % 1010,9 hPa 0,0 mm W 271 0,0 km/h (0 Bft)
09.04.2019 00:15 8,1 C 90 % 1010,8 hPa 0,0 mm W 271 0,0 km/h (0 Bft)
09.04.2019 00:20 8,1 C 90 % 1010,9 hPa 0,0 mm W 271 0,0 km/h (0 Bft)
09.04.2019 00:25 8,1 C 90 % 1010,9 hPa 0,0 mm W 271 6,4 km/h (2 Bft)
09.04.2019 00:30 8,1 C 90 % 1010,8 hPa 0,0 mm W 271 4,8 km/h (1 Bft)
09.04.2019 00:35 8,0 C 90 % 1010,7 hPa 0,0 mm W 271 8,0 km/h (2 Bft)
09.04.2019 00:40 8,0 C 90 % 1010,7 hPa 0,0 mm W 271 6,4 km/h (2 Bft)
09.04.2019 00:45 7,9 C 91 % 1010,7 hPa 0,0 mm W 271 6,4 km/h (2 Bft)
09.04.2019 00:50 7,9 C 91 % 1010,7 hPa 0,0 mm W 271 4,8 km/h (1 Bft)
09.04.2019 00:55 7,9 C 91 % 1010,7 hPa 0,0 mm W 271 4,8 km/h (1 Bft)
09.04.2019 01:00 7,9 C 91 % 1010,7 hPa 0,0 mm W 271 3,2 km/h (1 Bft)
09.04.2019 01:05 7,9 C 91 % 1010,6 hPa 0,0 mm W 271 0,0 km/h (0 Bft)
09.04.2019 01:10 7,9 C 91 % 1010,6 hPa 0,0 mm W 271 0,0 km/h (0 Bft)
09.04.2019 01:15 7,8 C 91 % 1010,6 hPa 0,0 mm W 271 0,0 km/h (0 Bft)
09.04.2019 01:20 7,8 C 91 % 1010,7 hPa 0,0 mm W 271 0,0 km/h (0 Bft)
09.04.2019 01:25 7,8 C 91 % 1010,6 hPa 0,0 mm W 271 0,0 km/h (0 Bft)
09.04.2019 01:30 7,7 C 91 % 1010,7 hPa 0,0 mm W 271 0,0 km/h (0 Bft)
09.04.2019 01:35 7,7 C 91 % 1010,7 hPa 0,0 mm W 271 0,0 km/h (0 Bft)
09.04.2019 01:40 7,7 C 91 % 1010,6 hPa 0,0 mm W 271 0,0 km/h (0 Bft)
09.04.2019 01:45 7,6 C 91 % 1010,6 hPa 0,0 mm W 271 0,0 km/h (0 Bft)
09.04.2019 01:50 7,6 C 91 % 1010,5 hPa 0,0 mm W 271 0,0 km/h (0 Bft)
09.04.2019 01:55 7,5 C 91 % 1010,6 hPa 0,0 mm W 271 0,0 km/h (0 Bft)
09.04.2019 02:00 7,5 C 91 % 1010,5 hPa 0,0 mm W 271 0,0 km/h (0 Bft)
09.04.2019 02:05 7,4 C 91 % 1010,5 hPa 0,0 mm W 271 0,0 km/h (0 Bft)
09.04.2019 02:10 7,4 C 91 % 1010,5 hPa 0,0 mm W 271 0,0 km/h (0 Bft)
09.04.2019 02:15 7,3 C 91 % 1010,5 hPa 0,0 mm W 271 0,0 km/h (0 Bft)
09.04.2019 02:20 7,3 C 91 % 1010,4 hPa 0,0 mm W 271 0,0 km/h (0 Bft)
09.04.2019 02:25 7,2 C 91 % 1010,5 hPa 0,0 mm W 271 0,0 km/h (0 Bft)
09.04.2019 02:30 7,1 C 91 % 1010,5 hPa 0,0 mm W 271 0,0 km/h (0 Bft)
09.04.2019 02:35 7,1 C 91 % 1010,5 hPa 0,0 mm W 271 0,0 km/h (0 Bft)
09.04.2019 02:40 7,1 C 91 % 1010,5 hPa 0,0 mm W 271 0,0 km/h (0 Bft)
09.04.2019 02:45 7,0 C 91 % 1010,5 hPa 0,0 mm W 271 0,0 km/h (0 Bft)
09.04.2019 02:50 7,0 C 91 % 1010,4 hPa 0,0 mm W 271 0,0 km/h (0 Bft)
09.04.2019 02:55 7,0 C 91 % 1010,4 hPa 0,0 mm W 271 0,0 km/h (0 Bft)
09.04.2019 03:00 7,0 C 91 % 1010,4 hPa 0,0 mm W 271 0,0 km/h (0 Bft)
09.04.2019 03:05 7,0 C 91 % 1010,5 hPa 0,0 mm W 271 0,0 km/h (0 Bft)
09.04.2019 03:10 7,1 C 91 % 1010,5 hPa 0,0 mm W 271 0,0 km/h (0 Bft)
09.04.2019 03:15 7,1 C 91 % 1010,4 hPa 0,0 mm W 271 0,0 km/h (0 Bft)
09.04.2019 03:20 7,1 C 91 % 1010,4 hPa 0,0 mm W 271 0,0 km/h (0 Bft)
09.04.2019 03:25 7,2 C 91 % 1010,4 hPa 0,0 mm W 271 0,0 km/h (0 Bft)
09.04.2019 03:30 7,2 C 91 % 1010,4 hPa 0,0 mm W 271 0,0 km/h (0 Bft)
09.04.2019 03:35 7,2 C 92 % 1010,3 hPa 0,0 mm W 271 0,0 km/h (0 Bft)
09.04.2019 03:40 7,2 C 92 % 1010,3 hPa 0,0 mm W 271 0,0 km/h (0 Bft)
09.04.2019 03:45 7,2 C 92 % 1010,3 hPa 0,0 mm W 271 0,0 km/h (0 Bft)
09.04.2019 03:50 7,2 C 92 % 1010,3 hPa 0,0 mm W 271 3,2 km/h (1 Bft)
09.04.2019 03:55 7,1 C 92 % 1010,3 hPa 0,0 mm W 271 3,2 km/h (1 Bft)
09.04.2019 04:00 7,2 C 92 % 1010,2 hPa 0,0 mm W 271 1,6 km/h (1 Bft)
09.04.2019 04:05 7,1 C 92 % 1010,1 hPa 0,0 mm W 271 3,2 km/h (1 Bft)
09.04.2019 04:10 7,2 C 92 % 1010,1 hPa 0,0 mm W 271 4,8 km/h (1 Bft)
09.04.2019 04:15 7,2 C 92 % 1010,2 hPa 0,0 mm W 271 3,2 km/h (1 Bft)
09.04.2019 04:20 7,2 C 92 % 1010,2 hPa 0,0 mm W 271 1,6 km/h (1 Bft)
09.04.2019 04:25 7,2 C 92 % 1010,2 hPa 0,0 mm W 271 1,6 km/h (1 Bft)
09.04.2019 04:30 7,2 C 92 % 1010,3 hPa 0,0 mm W 271 3,2 km/h (1 Bft)
09.04.2019 04:35 7,2 C 92 % 1010,3 hPa 0,0 mm W 271 1,6 km/h (1 Bft)
09.04.2019 04:40 7,2 C 92 % 1010,2 hPa 0,0 mm W 271 0,0 km/h (0 Bft)
09.04.2019 04:45 7,2 C 92 % 1010,3 hPa 0,0 mm W 271 0,0 km/h (0 Bft)
09.04.2019 04:50 7,2 C 92 % 1010,2 hPa 0,0 mm W 271 0,0 km/h (0 Bft)
09.04.2019 04:55 7,2 C 92 % 1010,1 hPa 0,0 mm W 271 1,6 km/h (1 Bft)
09.04.2019 05:00 7,2 C 92 % 1010,0 hPa 0,0 mm W 271 6,4 km/h (2 Bft)
09.04.2019 05:05 7,2 C 92 % 1010,0 hPa 0,0 mm W 271 6,4 km/h (2 Bft)
09.04.2019 05:10 7,1 C 92 % 1010,0 hPa 0,0 mm W 271 3,2 km/h (1 Bft)
09.04.2019 05:15 7,1 C 92 % 1010,0 hPa 0,0 mm W 271 4,8 km/h (1 Bft)
09.04.2019 05:20 7,1 C 92 % 1010,0 hPa 0,0 mm W 271 0,0 km/h (0 Bft)
09.04.2019 05:25 7,0 C 92 % 1010,0 hPa 0,0 mm W 271 0,0 km/h (0 Bft)
09.04.2019 05:30 6,9 C 92 % 1010,0 hPa 0,0 mm W 271 0,0 km/h (0 Bft)
09.04.2019 05:35 6,8 C 92 % 1010,1 hPa 0,0 mm W 271 0,0 km/h (0 Bft)
09.04.2019 05:40 6,7 C 92 % 1010,2 hPa 0,0 mm W 271 0,0 km/h (0 Bft)
09.04.2019 05:45 6,6 C 92 % 1010,2 hPa 0,0 mm W 271 0,0 km/h (0 Bft)
09.04.2019 05:50 6,4 C 92 % 1010,3 hPa 0,0 mm W 271 0,0 km/h (0 Bft)
09.04.2019 05:55 6,3 C 92 % 1010,2 hPa 0,0 mm W 271 0,0 km/h (0 Bft)
09.04.2019 06:00 6,3 C 92 % 1010,2 hPa 0,0 mm W 271 0,0 km/h (0 Bft)
09.04.2019 06:05 6,2 C 92 % 1010,3 hPa 0,0 mm W 271 0,0 km/h (0 Bft)
09.04.2019 06:10 6,2 C 92 % 1010,2 hPa 0,0 mm W 271 0,0 km/h (0 Bft)
09.04.2019 06:15 6,3 C 92 % 1010,2 hPa 0,0 mm W 271 0,0 km/h (0 Bft)
09.04.2019 06:20 6,3 C 92 % 1010,2 hPa 0,0 mm W 271 0,0 km/h (0 Bft)
09.04.2019 06:25 6,3 C 92 % 1010,2 hPa 0,0 mm W 271 0,0 km/h (0 Bft)
09.04.2019 06:30 6,3 C 92 % 1010,2 hPa 0,0 mm W 271 0,0 km/h (0 Bft)
09.04.2019 06:35 6,3 C 92 % 1010,2 hPa 0,0 mm W 271 0,0 km/h (0 Bft)
09.04.2019 06:40 6,3 C 92 % 1010,2 hPa 0,0 mm W-NW 285 1,6 km/h (1 Bft)
09.04.2019 06:45 6,3 C 92 % 1010,2 hPa 0,0 mm W-NW 284 1,6 km/h (1 Bft)
09.04.2019 06:50 6,3 C 92 % 1010,2 hPa 0,0 mm W-NW 284 1,6 km/h (1 Bft)
09.04.2019 06:55 6,3 C 92 % 1010,2 hPa 0,0 mm W-NW 284 3,2 km/h (1 Bft)
09.04.2019 07:00 6,2 C 92 % 1010,2 hPa 0,0 mm W-NW 284 0,0 km/h (0 Bft)
09.04.2019 07:05 6,2 C 92 % 1010,2 hPa 0,0 mm N-NW 338 0,0 km/h (0 Bft)
09.04.2019 07:10 6,1 C 92 % 1010,3 hPa 0,0 mm N-NW 338 3,2 km/h (1 Bft)
09.04.2019 07:15 6,1 C 92 % 1010,2 hPa 0,0 mm N-NW 338 1,6 km/h (1 Bft)
09.04.2019 07:20 6,0 C 92 % 1010,3 hPa 0,0 mm N-NW 338 0,0 km/h (0 Bft)
09.04.2019 07:25 6,0 C 92 % 1010,3 hPa 0,0 mm N-NW 338 0,0 km/h (0 Bft)
09.04.2019 07:30 6,1 C 92 % 1010,4 hPa 0,0 mm N-NW 338 1,6 km/h (1 Bft)
09.04.2019 07:35 6,1 C 92 % 1010,4 hPa 0,0 mm N-NW 337 4,8 km/h (1 Bft)
09.04.2019 07:40 6,2 C 92 % 1010,4 hPa 0,0 mm NW 319 4,8 km/h (1 Bft)
09.04.2019 07:45 6,3 C 92 % 1010,4 hPa 0,0 mm NW 318 4,8 km/h (1 Bft)
09.04.2019 07:50 6,5 C 93 % 1010,4 hPa 0,0 mm NW 318 0,0 km/h (0 Bft)
09.04.2019 07:55 6,7 C 92 % 1010,5 hPa 0,0 mm NW 318 0,0 km/h (0 Bft)
09.04.2019 08:00 6,8 C 93 % 1010,4 hPa 0,0 mm NW 318 0,0 km/h (0 Bft)
09.04.2019 08:05 7,1 C 93 % 1010,4 hPa 0,0 mm NW 318 1,6 km/h (1 Bft)
09.04.2019 08:10 7,8 C 93 % 1010,3 hPa 0,2 mm NW 318 3,2 km/h (1 Bft)
09.04.2019 08:15 8,3 C 92 % 1010,2 hPa 0,0 mm NW 317 4,8 km/h (1 Bft)
09.04.2019 08:20 8,5 C 91 % 1010,2 hPa 0,0 mm NW 317 3,2 km/h (1 Bft)
09.04.2019 08:25 8,5 C 89 % 1010,3 hPa 0,0 mm NW 317 3,2 km/h (1 Bft)
09.04.2019 08:30 8,7 C 89 % 1010,3 hPa 0,0 mm NW 317 3,2 km/h (1 Bft)
09.04.2019 08:35 8,8 C 88 % 1010,2 hPa 0,0 mm NW 317 1,6 km/h (1 Bft)
09.04.2019 08:40 8,4 C 88 % 1010,2 hPa 0,0 mm NW 317 3,2 km/h (1 Bft)
09.04.2019 08:45 8,4 C 89 % 1010,2 hPa 0,0 mm NW 317 3,2 km/h (1 Bft)
09.04.2019 08:50 8,4 C 89 % 1010,2 hPa 0,0 mm NW 317 1,6 km/h (1 Bft)
09.04.2019 08:55 8,6 C 89 % 1010,2 hPa 0,0 mm N-NO 21 3,2 km/h (1 Bft)
09.04.2019 09:00 8,5 C 89 % 1010,3 hPa 0,0 mm N-NO 24 4,8 km/h (1 Bft)
09.04.2019 09:05 8,6 C 89 % 1010,2 hPa 0,0 mm N-NO 24 4,8 km/h (1 Bft)
09.04.2019 09:10 8,6 C 90 % 1010,2 hPa 0,0 mm N-NO 25 4,8 km/h (1 Bft)
09.04.2019 09:15 8,6 C 89 % 1010,2 hPa 0,0 mm W-NW 290 4,8 km/h (1 Bft)
09.04.2019 09:20 8,6 C 89 % 1010,2 hPa 0,0 mm W-NW 290 3,2 km/h (1 Bft)
09.04.2019 09:25 8,7 C 89 % 1010,1 hPa 0,0 mm W-NW 290 1,6 km/h (1 Bft)
09.04.2019 09:30 9,0 C 89 % 1010,1 hPa 0,0 mm W-NW 294 4,8 km/h (1 Bft)
09.04.2019 09:35 9,5 C 89 % 1010,1 hPa 0,0 mm N-NO 19 3,2 km/h (1 Bft)
09.04.2019 09:40 9,7 C 87 % 1010,1 hPa 0,0 mm N-NO 19 3,2 km/h (1 Bft)
09.04.2019 09:45 9,9 C 87 % 1010,1 hPa 0,0 mm O-NO 76 6,4 km/h (2 Bft)
09.04.2019 09:50 10,3 C 86 % 1010,1 hPa 0,0 mm O-SO 110 6,4 km/h (2 Bft)
09.04.2019 09:55 10,2 C 85 % 1010,1 hPa 0,0 mm O-SO 111 4,8 km/h (1 Bft)
09.04.2019 10:00 10,3 C 86 % 1010,1 hPa 0,0 mm O-SO 112 4,8 km/h (1 Bft)
09.04.2019 10:05 10,5 C 86 % 1010,0 hPa 0,0 mm O 80 8,0 km/h (2 Bft)
09.04.2019 10:10 10,8 C 84 % 1009,9 hPa 0,0 mm O-NO 62 4,8 km/h (1 Bft)
09.04.2019 10:15 10,9 C 82 % 1009,9 hPa 0,0 mm O-NO 65 6,4 km/h (2 Bft)
09.04.2019 10:20 11,2 C 81 % 1009,9 hPa 0,0 mm O-NO 67 6,4 km/h (2 Bft)
09.04.2019 10:25 11,5 C 79 % 1009,9 hPa 0,0 mm NO 54 6,4 km/h (2 Bft)
09.04.2019 10:30 11,6 C 77 % 1009,8 hPa 0,0 mm O-NO 73 8,0 km/h (2 Bft)
09.04.2019 10:35 11,8 C 79 % 1009,9 hPa 0,0 mm O-SO 113 12,9 km/h (3 Bft)
09.04.2019 10:40 11,9 C 79 % 1009,8 hPa 0,0 mm O 92 9,7 km/h (2 Bft)
09.04.2019 10:45 12,2 C 79 % 1009,8 hPa 0,0 mm O 81 9,7 km/h (2 Bft)
09.04.2019 10:50 12,1 C 79 % 1009,7 hPa 0,0 mm O 86 8,0 km/h (2 Bft)
09.04.2019 10:55 12,4 C 80 % 1009,7 hPa 0,0 mm N-NO 17 8,0 km/h (2 Bft)
09.04.2019 11:00 12,7 C 77 % 1009,7 hPa 0,0 mm O 92 9,7 km/h (2 Bft)
09.04.2019 11:05 12,4 C 77 % 1009,5 hPa 0,0 mm O-NO 64 9,7 km/h (2 Bft)
09.04.2019 11:10 12,6 C 76 % 1009,5 hPa 0,0 mm O 83 9,7 km/h (2 Bft)
09.04.2019 11:15 12,7 C 75 % 1009,4 hPa 0,0 mm O 90 11,3 km/h (2 Bft)
09.04.2019 11:20 12,9 C 78 % 1009,5 hPa 0,0 mm O-SO 111 11,3 km/h (2 Bft)
09.04.2019 11:25 12,6 C 75 % 1009,4 hPa 0,0 mm O-NO 72 9,7 km/h (2 Bft)
09.04.2019 11:30 12,7 C 74 % 1009,4 hPa 0,0 mm O 94 8,0 km/h (2 Bft)
09.04.2019 11:35 12,8 C 75 % 1009,3 hPa 0,0 mm NO 55 9,7 km/h (2 Bft)
09.04.2019 11:40 13,1 C 74 % 1009,2 hPa 0,0 mm NO 47 6,4 km/h (2 Bft)
09.04.2019 11:45 13,6 C 73 % 1009,2 hPa 0,0 mm S 175 6,4 km/h (2 Bft)
09.04.2019 11:50 13,4 C 74 % 1009,1 hPa 0,0 mm O 95 8,0 km/h (2 Bft)
09.04.2019 11:55 13,3 C 73 % 1009,0 hPa 0,0 mm O-NO 71 8,0 km/h (2 Bft)
09.04.2019 12:00 13,9 C 73 % 1008,9 hPa 0,0 mm O 86 11,3 km/h (2 Bft)
09.04.2019 12:05 13,9 C 71 % 1008,8 hPa 0,0 mm O-NO 74 6,4 km/h (2 Bft)
09.04.2019 12:10 14,3 C 74 % 1008,8 hPa 0,0 mm O-SO 103 12,9 km/h (3 Bft)
09.04.2019 12:15 14,2 C 71 % 1008,8 hPa 0,0 mm O-SO 119 12,9 km/h (3 Bft)
09.04.2019 12:20 14,2 C 73 % 1008,7 hPa 0,0 mm SO 140 12,9 km/h (3 Bft)
09.04.2019 12:25 14,7 C 73 % 1008,6 hPa 0,0 mm O-SO 115 12,9 km/h (3 Bft)
09.04.2019 12:30 14,3 C 71 % 1008,5 hPa 0,0 mm O-NO 63 9,7 km/h (2 Bft)
09.04.2019 12:35 14,5 C 68 % 1008,4 hPa 0,0 mm O-SO 103 12,9 km/h (3 Bft)
09.04.2019 12:40 14,5 C 69 % 1008,3 hPa 0,0 mm O-SO 109 8,0 km/h (2 Bft)
09.04.2019 12:45 14,8 C 67 % 1008,3 hPa 0,0 mm NO 49 11,3 km/h (2 Bft)
09.04.2019 12:50 14,9 C 67 % 1008,2 hPa 0,0 mm O 101 14,5 km/h (3 Bft)
09.04.2019 12:55 14,8 C 70 % 1008,2 hPa 0,0 mm O-SO 122 12,9 km/h (3 Bft)
09.04.2019 13:00 15,0 C 64 % 1008,2 hPa 0,0 mm O 90 16,1 km/h (3 Bft)
09.04.2019 13:05 15,1 C 67 % 1008,1 hPa 0,0 mm NO 35 14,5 km/h (3 Bft)
09.04.2019 13:10 15,3 C 68 % 1008,1 hPa 0,0 mm O 84 14,5 km/h (3 Bft)
09.04.2019 13:15 15,1 C 68 % 1008,0 hPa 0,0 mm O 79 12,9 km/h (3 Bft)
09.04.2019 13:20 15,2 C 68 % 1008,0 hPa 0,0 mm SO 135 11,3 km/h (2 Bft)
09.04.2019 13:25 15,4 C 67 % 1007,9 hPa 0,0 mm O 80 12,9 km/h (3 Bft)
09.04.2019 13:30 15,7 C 67 % 1007,9 hPa 0,0 mm O-NO 75 14,5 km/h (3 Bft)
09.04.2019 13:35 15,6 C 67 % 1008,0 hPa 0,0 mm NO 56 12,9 km/h (3 Bft)
09.04.2019 13:40 15,3 C 67 % 1007,9 hPa 0,0 mm O 81 12,9 km/h (3 Bft)
09.04.2019 13:45 15,8 C 67 % 1007,8 hPa 0,0 mm O-SO 123 6,4 km/h (2 Bft)
09.04.2019 13:50 15,8 C 67 % 1007,8 hPa 0,0 mm O-SO 113 16,1 km/h (3 Bft)
09.04.2019 13:55 15,9 C 69 % 1007,8 hPa 0,0 mm O-SO 106 14,5 km/h (3 Bft)
09.04.2019 14:00 15,9 C 65 % 1007,8 hPa 0,0 mm SO 140 11,3 km/h (2 Bft)
09.04.2019 14:05 16,3 C 64 % 1007,7 hPa 0,0 mm SO 124 14,5 km/h (3 Bft)
09.04.2019 14:10 15,8 C 61 % 1007,8 hPa 0,0 mm O-SO 113 12,9 km/h (3 Bft)
09.04.2019 14:15 16,0 C 67 % 1007,7 hPa 0,0 mm S-SO 153 12,9 km/h (3 Bft)
09.04.2019 14:20 16,4 C 68 % 1007,6 hPa 0,0 mm SO 136 12,9 km/h (3 Bft)
09.04.2019 14:25 16,2 C 63 % 1007,6 hPa 0,0 mm SO 132 14,5 km/h (3 Bft)
09.04.2019 14:30 16,3 C 67 % 1007,6 hPa 0,0 mm O-SO 107 14,5 km/h (3 Bft)
09.04.2019 14:35 15,8 C 64 % 1007,5 hPa 0,0 mm SO 146 14,5 km/h (3 Bft)
09.04.2019 14:40 15,9 C 66 % 1007,4 hPa 0,0 mm O 83 12,9 km/h (3 Bft)
09.04.2019 14:45 16,2 C 66 % 1007,3 hPa 0,0 mm O 88 20,9 km/h (4 Bft)
09.04.2019 14:50 16,1 C 66 % 1007,4 hPa 0,0 mm O-SO 102 16,1 km/h (3 Bft)
09.04.2019 14:55 15,9 C 64 % 1007,4 hPa 0,0 mm O-NO 62 14,5 km/h (3 Bft)
09.04.2019 15:00 15,9 C 63 % 1007,2 hPa 0,0 mm O 79 19,3 km/h (3 Bft)
09.04.2019 15:05 15,8 C 65 % 1007,2 hPa 0,0 mm O-SO 123 20,9 km/h (4 Bft)
09.04.2019 15:10 15,9 C 65 % 1007,1 hPa 0,0 mm O 95 12,9 km/h (3 Bft)
09.04.2019 15:15 15,9 C 63 % 1007,0 hPa 0,0 mm SO 130 12,9 km/h (3 Bft)
09.04.2019 15:20 16,0 C 66 % 1006,9 hPa 0,0 mm O 92 14,5 km/h (3 Bft)
09.04.2019 15:25 16,1 C 63 % 1006,9 hPa 0,0 mm O 82 17,7 km/h (3 Bft)
09.04.2019 15:30 15,9 C 64 % 1006,8 hPa 0,0 mm O 95 12,9 km/h (3 Bft)
09.04.2019 15:35 16,0 C 65 % 1006,8 hPa 0,0 mm O-SO 111 16,1 km/h (3 Bft)
09.04.2019 15:40 16,0 C 66 % 1006,7 hPa 0,0 mm O-SO 107 12,9 km/h (3 Bft)
09.04.2019 15:45 15,9 C 62 % 1006,7 hPa 0,0 mm O 80 14,5 km/h (3 Bft)
09.04.2019 15:50 15,9 C 63 % 1006,6 hPa 0,0 mm S-SO 163 16,1 km/h (3 Bft)
09.04.2019 15:55 15,9 C 65 % 1006,5 hPa 0,0 mm O-SO 122 17,7 km/h (3 Bft)
09.04.2019 16:00 15,9 C 63 % 1006,4 hPa 0,0 mm O 89 17,7 km/h (3 Bft)
09.04.2019 16:05 15,8 C 61 % 1006,4 hPa 0,0 mm O 101 20,9 km/h (4 Bft)
09.04.2019 16:10 15,6 C 62 % 1006,4 hPa 0,0 mm O-SO 102 16,1 km/h (3 Bft)
09.04.2019 16:15 15,6 C 61 % 1006,3 hPa 0,0 mm O 95 14,5 km/h (3 Bft)
09.04.2019 16:20 15,7 C 63 % 1006,3 hPa 0,0 mm SO 137 12,9 km/h (3 Bft)
09.04.2019 16:25 15,9 C 65 % 1006,3 hPa 0,0 mm O 101 14,5 km/h (3 Bft)
09.04.2019 16:30 15,8 C 64 % 1006,3 hPa 0,0 mm O-SO 113 14,5 km/h (3 Bft)
09.04.2019 16:35 15,7 C 60 % 1006,3 hPa 0,0 mm O 94 14,5 km/h (3 Bft)
09.04.2019 16:40 15,8 C 62 % 1006,2 hPa 0,0 mm O-SO 106 12,9 km/h (3 Bft)
09.04.2019 16:45 16,1 C 64 % 1006,1 hPa 0,0 mm O-SO 111 12,9 km/h (3 Bft)
09.04.2019 16:50 16,1 C 60 % 1006,2 hPa 0,0 mm O 80 12,9 km/h (3 Bft)
09.04.2019 16:55 16,1 C 60 % 1006,1 hPa 0,0 mm O-SO 103 20,9 km/h (4 Bft)
09.04.2019 17:00 16,1 C 62 % 1006,2 hPa 0,0 mm O-NO 78 17,7 km/h (3 Bft)
09.04.2019 17:05 15,8 C 60 % 1006,2 hPa 0,0 mm O-NO 63 12,9 km/h (3 Bft)
09.04.2019 17:10 15,8 C 61 % 1006,2 hPa 0,0 mm O 93 16,1 km/h (3 Bft)
09.04.2019 17:15 15,8 C 60 % 1006,1 hPa 0,0 mm O-NO 61 14,5 km/h (3 Bft)
09.04.2019 17:20 15,9 C 62 % 1006,1 hPa 0,0 mm O-NO 75 16,1 km/h (3 Bft)
09.04.2019 17:25 15,8 C 60 % 1006,1 hPa 0,0 mm O-NO 78 14,5 km/h (3 Bft)
09.04.2019 17:30 15,7 C 61 % 1006,1 hPa 0,0 mm O-NO 76 12,9 km/h (3 Bft)
09.04.2019 17:35 15,7 C 62 % 1006,0 hPa 0,0 mm O-NO 61 14,5 km/h (3 Bft)
09.04.2019 17:40 15,6 C 61 % 1006,0 hPa 0,0 mm O 101 17,7 km/h (3 Bft)
09.04.2019 17:45 15,4 C 59 % 1006,0 hPa 0,0 mm O 93 16,1 km/h (3 Bft)
09.04.2019 17:50 15,3 C 62 % 1006,1 hPa 0,0 mm NO 40 16,1 km/h (3 Bft)
09.04.2019 17:55 15,3 C 57 % 1006,1 hPa 0,0 mm NO 51 14,5 km/h (3 Bft)
09.04.2019 18:00 15,4 C 57 % 1006,0 hPa 0,0 mm O-NO 63 16,1 km/h (3 Bft)
09.04.2019 18:05 15,2 C 61 % 1006,0 hPa 0,0 mm NO 38 14,5 km/h (3 Bft)
09.04.2019 18:10 15,0 C 60 % 1005,9 hPa 0,0 mm O-NO 59 14,5 km/h (3 Bft)
09.04.2019 18:15 14,9 C 60 % 1005,9 hPa 0,0 mm O-NO 64 16,1 km/h (3 Bft)
09.04.2019 18:20 15,1 C 61 % 1005,9 hPa 0,0 mm O-NO 59 16,1 km/h (3 Bft)
09.04.2019 18:25 14,9 C 61 % 1006,0 hPa 0,0 mm O-NO 65 11,3 km/h (2 Bft)
09.04.2019 18:30 14,6 C 64 % 1006,0 hPa 0,0 mm O-NO 57 12,9 km/h (3 Bft)
09.04.2019 18:35 14,4 C 63 % 1006,0 hPa 0,0 mm O 79 12,9 km/h (3 Bft)
09.04.2019 18:40 14,4 C 63 % 1006,0 hPa 0,0 mm O-NO 68 16,1 km/h (3 Bft)
09.04.2019 18:45 14,2 C 65 % 1006,0 hPa 0,0 mm O-NO 58 12,9 km/h (3 Bft)
09.04.2019 18:50 14,2 C 65 % 1006,0 hPa 0,0 mm O 80 12,9 km/h (3 Bft)
09.04.2019 18:55 14,2 C 64 % 1006,1 hPa 0,0 mm O-NO 74 16,1 km/h (3 Bft)
09.04.2019 19:00 14,0 C 65 % 1006,1 hPa 0,0 mm O-NO 73 12,9 km/h (3 Bft)
09.04.2019 19:05 13,8 C 65 % 1006,1 hPa 0,0 mm O-NO 67 14,5 km/h (3 Bft)
09.04.2019 19:10 13,6 C 66 % 1006,2 hPa 0,0 mm O-NO 72 12,9 km/h (3 Bft)
09.04.2019 19:15 13,3 C 67 % 1006,2 hPa 0,0 mm O-NO 78 8,0 km/h (2 Bft)
09.04.2019 19:20 13,1 C 68 % 1006,2 hPa 0,0 mm O 82 4,8 km/h (1 Bft)
09.04.2019 19:25 12,9 C 69 % 1006,3 hPa 0,0 mm O 90 4,8 km/h (1 Bft)
09.04.2019 19:30 12,9 C 68 % 1006,3 hPa 0,0 mm O 98 4,8 km/h (1 Bft)
09.04.2019 19:35 12,9 C 68 % 1006,3 hPa 0,0 mm O 98 3,2 km/h (1 Bft)
09.04.2019 19:40 12,9 C 68 % 1006,3 hPa 0,0 mm O 98 0,0 km/h (0 Bft)
09.04.2019 19:45 12,9 C 68 % 1006,4 hPa 0,0 mm O 98 1,6 km/h (1 Bft)
09.04.2019 19:50 12,8 C 68 % 1006,4 hPa 0,0 mm O 89 3,2 km/h (1 Bft)
09.04.2019 19:55 12,9 C 67 % 1006,4 hPa 0,0 mm O 89 3,2 km/h (1 Bft)
09.04.2019 20:00 12,9 C 67 % 1006,4 hPa 0,0 mm O 89 1,6 km/h (1 Bft)
09.04.2019 20:05 12,9 C 67 % 1006,5 hPa 0,0 mm O 89 1,6 km/h (1 Bft)
09.04.2019 20:10 12,9 C 67 % 1006,5 hPa 0,0 mm O 89 1,6 km/h (1 Bft)
09.04.2019 20:15 12,8 C 68 % 1006,5 hPa 0,0 mm O 89 0,0 km/h (0 Bft)
09.04.2019 20:20 12,6 C 69 % 1006,6 hPa 0,0 mm O 89 0,0 km/h (0 Bft)
09.04.2019 20:25 12,4 C 69 % 1006,6 hPa 0,0 mm O 89 0,0 km/h (0 Bft)
09.04.2019 20:30 12,2 C 70 % 1006,6 hPa 0,0 mm O 89 0,0 km/h (0 Bft)
09.04.2019 20:35 12,0 C 70 % 1006,7 hPa 0,0 mm O 89 1,6 km/h (1 Bft)
09.04.2019 20:40 11,9 C 70 % 1006,8 hPa 0,0 mm O 89 0,0 km/h (0 Bft)
09.04.2019 20:45 11,7 C 71 % 1006,9 hPa 0,0 mm O 89 0,0 km/h (0 Bft)
09.04.2019 20:50 11,6 C 71 % 1006,8 hPa 0,0 mm O 89 1,6 km/h (1 Bft)
09.04.2019 20:55 11,5 C 71 % 1006,9 hPa 0,0 mm O 89 0,0 km/h (0 Bft)
09.04.2019 21:00 11,3 C 72 % 1006,9 hPa 0,0 mm O 89 0,0 km/h (0 Bft)
09.04.2019 21:05 11,2 C 72 % 1006,9 hPa 0,0 mm O 89 0,0 km/h (0 Bft)
09.04.2019 21:10 11,2 C 72 % 1006,9 hPa 0,0 mm O 89 0,0 km/h (0 Bft)
09.04.2019 21:15 11,1 C 72 % 1006,9 hPa 0,0 mm O 89 0,0 km/h (0 Bft)
09.04.2019 21:20 10,9 C 72 % 1006,9 hPa 0,0 mm O 89 0,0 km/h (0 Bft)
09.04.2019 21:25 10,8 C 73 % 1006,9 hPa 0,0 mm O 89 0,0 km/h (0 Bft)
09.04.2019 21:30 10,7 C 73 % 1006,9 hPa 0,0 mm O 89 1,6 km/h (1 Bft)
09.04.2019 21:35 10,6 C 73 % 1006,9 hPa 0,0 mm O 89 1,6 km/h (1 Bft)
09.04.2019 21:40 10,5 C 73 % 1006,9 hPa 0,0 mm O 89 0,0 km/h (0 Bft)
09.04.2019 21:45 10,3 C 73 % 1006,9 hPa 0,0 mm O 89 0,0 km/h (0 Bft)
09.04.2019 21:50 10,2 C 74 % 1006,9 hPa 0,0 mm O 89 1,6 km/h (1 Bft)
09.04.2019 21:55 10,0 C 74 % 1006,8 hPa 0,0 mm O 89 1,6 km/h (1 Bft)
09.04.2019 22:00 9,9 C 75 % 1006,8 hPa 0,0 mm O 89 0,0 km/h (0 Bft)
09.04.2019 22:05 9,8 C 75 % 1006,8 hPa 0,0 mm O 89 0,0 km/h (0 Bft)
09.04.2019 22:10 9,6 C 75 % 1006,8 hPa 0,0 mm O 89 0,0 km/h (0 Bft)
09.04.2019 22:15 9,5 C 75 % 1006,7 hPa 0,0 mm O 89 0,0 km/h (0 Bft)
09.04.2019 22:20 9,3 C 76 % 1006,7 hPa 0,0 mm O 89 0,0 km/h (0 Bft)
09.04.2019 22:25 9,2 C 76 % 1006,7 hPa 0,0 mm O 89 0,0 km/h (0 Bft)
09.04.2019 22:30 9,1 C 76 % 1006,7 hPa 0,0 mm O 89 0,0 km/h (0 Bft)
09.04.2019 22:35 8,9 C 77 % 1006,7 hPa 0,0 mm O 89 0,0 km/h (0 Bft)
09.04.2019 22:40 8,7 C 77 % 1006,7 hPa 0,0 mm O 89 0,0 km/h (0 Bft)
09.04.2019 22:45 8,6 C 77 % 1006,7 hPa 0,0 mm O 89 0,0 km/h (0 Bft)
09.04.2019 22:50 8,5 C 78 % 1006,7 hPa 0,0 mm O 89 0,0 km/h (0 Bft)
09.04.2019 22:55 8,4 C 78 % 1006,7 hPa 0,0 mm O 89 0,0 km/h (0 Bft)
09.04.2019 23:00 8,2 C 79 % 1006,7 hPa 0,0 mm O 89 1,6 km/h (1 Bft)
09.04.2019 23:05 8,1 C 79 % 1006,7 hPa 0,0 mm O 88 3,2 km/h (1 Bft)
09.04.2019 23:10 8,1 C 80 % 1006,7 hPa 0,0 mm O 88 1,6 km/h (1 Bft)
09.04.2019 23:15 8,1 C 80 % 1006,8 hPa 0,0 mm O 88 1,6 km/h (1 Bft)
09.04.2019 23:20 8,1 C 81 % 1006,8 hPa 0,0 mm O 88 0,0 km/h (0 Bft)
09.04.2019 23:25 8,0 C 81 % 1006,8 hPa 0,0 mm O 88 0,0 km/h (0 Bft)
09.04.2019 23:30 7,9 C 81 % 1006,8 hPa 0,0 mm O 88 0,0 km/h (0 Bft)
09.04.2019 23:35 7,8 C 82 % 1006,8 hPa 0,0 mm O 88 0,0 km/h (0 Bft)
09.04.2019 23:40 7,8 C 82 % 1006,8 hPa 0,0 mm O 88 0,0 km/h (0 Bft)
09.04.2019 23:45 7,7 C 82 % 1006,8 hPa 0,0 mm O 88 0,0 km/h (0 Bft)
09.04.2019 23:50 7,7 C 82 % 1006,9 hPa 0,0 mm O 88 1,6 km/h (1 Bft)
09.04.2019 23:55 7,6 C 83 % 1006,8 hPa 0,0 mm O 88 1,6 km/h (1 Bft)
_ Min-Zeit 07:20 17:55 18:10 - - - 00:00
Minimum _ 6,0 C 57 % 1005,9 hPa - - - 0,0 km/h (0 Bft)
_ Max-Zeit 14:20 07:50 00:00 08:10 - - 14:45
Maximum _ 16,4 C 93 % 1011,0 hPa 0,2 mm - - 20,9 km/h
O (4 Bft)
Durchschnitt _ 10,8 C 79 % 1008,6 hPa #0,2 mm O - 5,9 km/h (2 Bft)